Location: Epalinges
(46.5518°N, 6.6683°E)
Time: 18:03:57
(UTC+00:00)

Cosmos 1842 Rocket - Pass Details

Date: 20 June 2021
Orbit: 606 x 633 km, 82.5° (Epoch: 30 July)

Event Time Altitude Azimuth Distance (km) Brightness Sun altitude
Rises 01:25:09 0° 343° (NNW) 2,877 7.7 -15.7°
Reaches altitude 10° 01:27:29 10° 335° (NNW) 1,969 6.7 -15.5°
Maximum altitude 01:31:28 37° 269° (W) 961 4.3 -15.2°
Enters shadow 01:33:16 25° 222° (SW) 1,229 4.5 -15.1°
